Regional Weather Roundup
Issued by NWS Newport/Morehead, NC

Current Version | Previous Version | Text Only | Print | Product List | Glossary On
Versions: 1 2 3 4 5 6 7 8 9 10 11 12 13 14 15 16 17 18 19 20 21 22 23 24 25 26 27 28 29 30 31 32 33 34 35 36 37 38 39 40 41 42 43 44 45 46 47 48 49 50
000
ASUS42 KMHX 222122
RWRMHX
WEATHER ROUNDUP FOR EASTERN NORTH CAROLINA
NATIONAL WEATHER SERVICE NEWPORT/MOREHEAD CITY NC
500 PM EDT TUE JUL 22 2014

NOTE: "FAIR" INDICATES FEW OR NO CLOUDS BELOW 12,000 FEET
WITH NO SIGNIFICANT WEATHER AND/OR OBSTRUCTIONS TO VISIBILITY

NCZ015>017-031-032-045>047-102-103-222200-
NORTH COAST

CITY           SKY/WX    TMP DP  RH WIND       PRES   REMARKS
EDENTON        CLOUDY    78  75  92 E5        30.11F
ELIZABETH CITY CLOUDY    79  73  83 E8        30.12S
KITTY HAWK     CLOUDY    77  75  94 E3        30.11F
MANTEO         NOT AVBL

$$

NCZ045>047-081-094-103-104-222200-
CENTRAL COAST

CITY           SKY/WX    TMP DP  RH WIND       PRES   REMARKS
FRISCO         PTSUNNY   82  74  76 SW13G21   30.12F
SWANQUARTER      N/A     82 N/A N/A S10       30.06F

$$

NCZ095-097-098-100-101-222200-
SOUTHERN COAST

CITY           SKY/WX    TMP DP  RH WIND       PRES   REMARKS
BEAUFORT       PTSUNNY   81  74  79 S13       30.11F
CEDAR ISLAND     N/A     81 N/A N/A S10G16    30.15S
JACKSONVILLE   PTSUNNY   81  75  82 SE13      30.09S
NEWPORT        NOT AVBL
PINEY ISLAND   MOCLDY    78  75  90 S8        30.10F
WILMINGTON     PTSUNNY   81  75  82 SE5       30.09S


$$

NCZ011>013-027>030-043-044-078>080-089-090>093-098-222200-
COASTAL PLAIN

CITY           SKY/WX    TMP DP  RH WIND       PRES   REMARKS
AHOSKIE        MOSUNNY   75  72  89 CALM      30.13F
CLINTON        PTSUNNY   87  76  70 SE6       30.08S
ELIZABETHTOWN  PTSUNNY   85  73  65 SE3       30.08S
GOLDSBORO      PTSUNNY   81  79  94 E10       30.06S
GREENVILLE     LGT RAIN  77  75  94 CALM      30.11F
HAVELOCK       PTSUNNY   80  73  79 S8        30.11F
KENANSVILLE    PTSUNNY   83  74  75 CALM      30.09S
KINSTON        CLOUDY    77  75  94 SE3       30.11S
NEW BERN       PTSUNNY   85  73  67 SE10      30.10F
RICHLANDS      PTSUNNY   84  73  70 E7        30.08F
ROANOKE RAPIDS NOT AVBL
ROCKY MOUNT    MOSUNNY   86  72  62 E9        30.10F
WASHINGTON     CLOUDY    77  75  92 CALM      30.11S
WHITEVILLE     CLOUDY    85  73  67 E5        30.07S

$$

AMZ130-135-150-152-154-156-158-170-250-252-270-ANZ085-086-088-633-658-670-222200-
MARINE OBSERVATIONS

STATION/POSITION TIME  TEMP    WIND        PRES    WAVE   SWELL
                       AIR SEA DIR/SP/G            HT/PER HT/PER
                 (UTC) (F)     (DEG/KT/KT) (MB)    (FT/S) (FT/S)
CHESAPEAKE LIGHT NOT AVBL
BUOY 44014       2100   76 78  130/  8/ 10 1019.9    3/ 7   2/ 7
DUCK             2100   80 74  100/  6/  7 1019.3
2E DUCK          2100                        N/A     2/ 8
OREGON INLET     2100   79 78  190/ 11/ 12 1019.8
BUOY 44095       2100      78                N/A     3/ 7
20E OREGON INLET 2000          VRB 10/ 12    N/A
HATTERAS CG      2100   80 82  190/  6/ 11 1020.3
DIAMOND BUOY     2100          VRB 17/ 19  1019.6    4/ 7   2/ 7
CAPE LOOKOUT     2100   78     180/ 14/ 15 1019.4
BEAUFORT LAB     2100   79 81  180/ 13/ 17 1019.0
30 SE NEW RIVER  2100   79 81  180/ 16/ 17 1019.2    4/ 5   2/ 8
5 SE WRIGHTSVILL 2100   77 81  190/  8/ 10   N/A
BUOY 41002       2048   82 83  190/ 12/ 14 1021.3    4/ 8   3/ 8
BUOY 41004       2100   77 82  120/  8/ 10 1017.5    3/ 8   2/ 8

$$


USA.gov is the U.S. government's official web portal to all federal, state and local government web resources and services.